• In Kazakhstan
  • List of Countries
  • For 7 days
  • Water Temperature
  • Satellite Maps
  • Weather Map
  • News
  • Weather Widgets
  • user-avatar
    Login

    Hourly Weather Diyarbakır

    Today, 20 September, Wednesday

    Time Temperature Precipitation Wind Pressure Humidity
    00:00 +29°C° 0 mm 1 mps 703 mmHg 20%
    01:00 +28°C° 0 mm 1 mps 703 mmHg 21%
    02:00 +28°C° 0 mm 1 mps 703 mmHg 22%
    03:00 +27°C° 0 mm 1 mps 703 mmHg 22%
    04:00 +27°C° 0 mm 1 mps 703 mmHg 23%
    05:00 +27°C° 0 mm 1 mps 703 mmHg 24%
    06:00 +26°C° 0 mm 1 mps 703 mmHg 24%
    07:00 +28°C° 0 mm 1 mps 703 mmHg 22%
    08:00 +31°C° 0 mm 2 mps 704 mmHg 19%
    09:00 +34°C° 0 mm 2 mps 704 mmHg 17%
    10:00 +35°C° 0 mm 2 mps 704 mmHg 16%
    11:00 +37°C° 0 mm 3 mps 704 mmHg 14%
    12:00 +39°C° 0 mm 3 mps 704 mmHg 13%
    13:00 +39°C° 0 mm 3 mps 703 mmHg 12%
    14:00 +41°C° 0 mm 4 mps 703 mmHg 11%
    15:00 +42°C° 0 mm 4 mps 703 mmHg 11%
    16:00 +39°C° 0 mm 3 mps 702 mmHg 11%
    17:00 +38°C° 0 mm 2 mps 702 mmHg 12%
    18:00 +37°C° 0 mm 2 mps 702 mmHg 13%
    19:00 +36°C° 0 mm 2 mps 702 mmHg 14%
    20:00 +33°C° 0 mm 1 mps 702 mmHg 15%
    21:00 +32°C° 0 mm 1 mps 702 mmHg 17%
    22:00 +31°C° 0 mm 1 mps 702 mmHg 18%
    23:00 +30°C° 0 mm 1 mps 702 mmHg 19%

    Tomorrow, 21 September, Thursday

    Time Temperature Precipitation Wind Pressure Humidity
    00:00 +30°C° 0 mm 1 mps 702 mmHg 21%
    01:00 +29°C° 0 mm 1 mps 702 mmHg 24%
    02:00 +28°C° 0 mm 1 mps 702 mmHg 26%
    03:00 +27°C° 0 mm 1 mps 701 mmHg 29%
    04:00 +27°C° 0 mm 1 mps 701 mmHg 30%
    05:00 +27°C° 0 mm 1 mps 702 mmHg 31%
    06:00 +24°C° 0 mm 0 mps 702 mmHg 33%
    07:00 +28°C° 0 mm 1 mps 702 mmHg 28%
    08:00 +30°C° 0 mm 1 mps 702 mmHg 24%
    09:00 +32°C° 0 mm 1 mps 703 mmHg 20%
    10:00 +35°C° 0 mm 2 mps 703 mmHg 18%
    11:00 +36°C° 0 mm 3 mps 703 mmHg 16%
    12:00 +38°C° 0 mm 4 mps 702 mmHg 15%
    13:00 +38°C° 0 mm 4 mps 702 mmHg 14%
    14:00 +39°C° 0 mm 5 mps 702 mmHg 14%
    15:00 +39°C° 0 mm 5 mps 701 mmHg 13%
    16:00 +37°C° 0 mm 5 mps 701 mmHg 15%
    17:00 +36°C° 0 mm 4 mps 700 mmHg 17%
    18:00 +34°C° 0 mm 3 mps 700 mmHg 19%
    19:00 +33°C° 0 mm 3 mps 700 mmHg 21%
    20:00 +31°C° 0 mm 2 mps 701 mmHg 24%
    21:00 +29°C° 0 mm 1 mps 701 mmHg 27%
    22:00 +28°C° 0 mm 1 mps 701 mmHg 29%
    23:00 +28°C° 0 mm 1 mps 701 mmHg 31%

    Day after tomorrow, 22 September, Friday

    Time Temperature Precipitation Wind Pressure Humidity
    00:00 +27°C° 0 mm 1 mps 701 mmHg 33%
    01:00 +27°C° 0 mm 1 mps 701 mmHg 34%
    02:00 +26°C° 0 mm 1 mps 701 mmHg 36%
    03:00 +25°C° 0 mm 1 mps 700 mmHg 37%
    04:00 +25°C° 0 mm 1 mps 700 mmHg 38%
    05:00 +24°C° 0 mm 1 mps 700 mmHg 39%
    06:00 +24°C° 0 mm 1 mps 700 mmHg 40%
    07:00 +24°C° 0 mm 0 mps 701 mmHg 36%
    08:00 +26°C° 0 mm 0 mps 701 mmHg 32%
    09:00 +28°C° 0 mm 0 mps 702 mmHg 28%
    10:00 +32°C° 0 mm 1 mps 702 mmHg 25%
    11:00 +34°C° 0 mm 2 mps 702 mmHg 22%
    12:00 +35°C° 0 mm 2 mps 702 mmHg 19%
    13:00 +36°C° 0 mm 3 mps 701 mmHg 18%
    14:00 +37°C° 0 mm 4 mps 701 mmHg 16%
    15:00 +37°C° 0 mm 4 mps 701 mmHg 15%
    16:00 +36°C° 0 mm 4 mps 701 mmHg 15%
    17:00 +35°C° 0 mm 4 mps 701 mmHg 15%
    18:00 +34°C° 0 mm 4 mps 701 mmHg 15%
    19:00 +33°C° 0 mm 4 mps 701 mmHg 17%
    20:00 +30°C° 0 mm 4 mps 701 mmHg 19%
    21:00 +29°C° 0 mm 4 mps 701 mmHg 21%
    22:00 +28°C° 0 mm 3 mps 701 mmHg 24%
    23:00 +26°C° 0 mm 2 mps 701 mmHg 27%

    23 September, Saturday

    Time Temperature Precipitation Wind Pressure Humidity
    00:00 +25°C° 0 mm 2 mps 701 mmHg 30%
    01:00 +25°C° 0 mm 2 mps 702 mmHg 33%
    02:00 +24°C° 0 mm 1 mps 702 mmHg 36%
    03:00 +23°C° 0 mm 1 mps 702 mmHg 39%
    04:00 +22°C° 0 mm 1 mps 702 mmHg 40%
    05:00 +21°C° 0 mm 1 mps 702 mmHg 42%
    06:00 +19°C° 0 mm 0 mps 702 mmHg 43%
    07:00 +23°C° 0 mm 1 mps 702 mmHg 37%
    08:00 +25°C° 0 mm 1 mps 703 mmHg 31%
    09:00 +27°C° 0 mm 1 mps 704 mmHg 25%
    10:00 +28°C° 0 mm 1 mps 704 mmHg 21%
    11:00 +30°C° 0 mm 2 mps 704 mmHg 17%
    12:00 +32°C° 0 mm 2 mps 704 mmHg 13%
    13:00 +33°C° 0 mm 3 mps 703 mmHg 12%
    14:00 +34°C° 0 mm 3 mps 703 mmHg 11%
    15:00 +35°C° 0 mm 3 mps 703 mmHg 10%
    16:00 +33°C° 0 mm 3 mps 703 mmHg 11%
    17:00 +31°C° 0 mm 3 mps 703 mmHg 12%
    18:00 +30°C° 0 mm 3 mps 703 mmHg 14%
    19:00 +29°C° 0 mm 3 mps 703 mmHg 16%
    20:00 +27°C° 0 mm 2 mps 703 mmHg 18%
    21:00 +26°C° 0 mm 2 mps 704 mmHg 20%
    22:00 +25°C° 0 mm 2 mps 704 mmHg 22%
    23:00 +25°C° 0 mm 1 mps 704 mmHg 24%

    24 September, Sunday

    Time Temperature Precipitation Wind Pressure Humidity
    00:00 +24°C° 0 mm 1 mps 704 mmHg 26%
    01:00 +23°C° 0 mm 1 mps 704 mmHg 29%
    02:00 +23°C° 0 mm 1 mps 703 mmHg 31%
    03:00 +22°C° 0 mm 1 mps 703 mmHg 34%
    04:00 +22°C° 0 mm 1 mps 704 mmHg 34%
    05:00 +21°C° 0 mm 1 mps 704 mmHg 35%
    06:00 +21°C° 0 mm 1 mps 704 mmHg 36%
    07:00 +23°C° 0 mm 1 mps 704 mmHg 31%
    08:00 +25°C° 0 mm 1 mps 705 mmHg 27%
    09:00 +27°C° 0 mm 1 mps 705 mmHg 23%
    10:00 +29°C° 0 mm 1 mps 705 mmHg 20%
    11:00 +30°C° 0 mm 2 mps 705 mmHg 17%
    12:00 +32°C° 0 mm 2 mps 705 mmHg 15%
    13:00 +32°C° 0 mm 2 mps 705 mmHg 14%
    14:00 +34°C° 0 mm 2 mps 705 mmHg 12%
    15:00 +35°C° 0 mm 3 mps 704 mmHg 11%
    16:00 +34°C° 0 mm 2 mps 704 mmHg 12%
    17:00 +32°C° 0 mm 2 mps 704 mmHg 13%
    18:00 +31°C° 0 mm 2 mps 704 mmHg 14%
    19:00 +29°C° 0 mm 2 mps 704 mmHg 16%
    20:00 +28°C° 0 mm 1 mps 704 mmHg 18%
    21:00 +26°C° 0 mm 1 mps 705 mmHg 19%
    22:00 +26°C° 0 mm 1 mps 704 mmHg 20%
    23:00 +26°C° 0 mm 1 mps 704 mmHg 21%

    25 September, Monday

    Time Temperature Precipitation Wind Pressure Humidity
    00:00 +25°C° 0 mm 1 mps 704 mmHg 22%
    01:00 +25°C° 0 mm 1 mps 704 mmHg 22%
    02:00 +25°C° 0 mm 1 mps 704 mmHg 22%
    03:00 +24°C° 0 mm 1 mps 704 mmHg 23%
    04:00 +24°C° 0.1 mm 1 mps 704 mmHg 24%
    05:00 +24°C° 0.1 mm 1 mps 704 mmHg 25%
    06:00 +23°C° 0.1 mm 1 mps 704 mmHg 26%
    07:00 +25°C° 0.2 mm 1 mps 704 mmHg 24%
    08:00 +27°C° 0.2 mm 1 mps 704 mmHg 22%
    09:00 +29°C° 0.2 mm 1 mps 705 mmHg 20%
    10:00 +30°C° 0.1 mm 2 mps 705 mmHg 19%
    11:00 +32°C° 0.1 mm 2 mps 705 mmHg 17%
    12:00 +35°C° 0.1 mm 2 mps 705 mmHg 15%
    13:00 +35°C° 0 mm 2 mps 704 mmHg 15%
    14:00 +36°C° 0 mm 2 mps 704 mmHg 15%
    15:00 +37°C° 0 mm 2 mps 703 mmHg 15%
    16:00 +36°C° 0 mm 2 mps 703 mmHg 16%
    17:00 +35°C° 0 mm 2 mps 703 mmHg 17%
    18:00 +34°C° 0 mm 2 mps 703 mmHg 18%
    19:00 +32°C° 0 mm 1 mps 703 mmHg 19%
    20:00 +31°C° 0 mm 1 mps 703 mmHg 21%
    21:00 +29°C° 0 mm 1 mps 703 mmHg 22%
    22:00 +29°C° 0 mm 1 mps 703 mmHg 22%
    23:00 +28°C° 0 mm 1 mps 703 mmHg 23%
    Show more